Year,Month,Day,Hour,Minute,Value (Times are PST for temperature in C)
2012,03,25,00,00,5.40
2012,03,25,00,01,5.40
2012,03,25,00,02,5.40
2012,03,25,00,03,5.40
2012,03,25,00,04,5.40
2012,03,25,00,05,5.30
2012,03,25,00,06,5.30
2012,03,25,00,07,5.30
2012,03,25,00,08,5.30
2012,03,25,00,09,5.30
2012,03,25,00,10,5.30
2012,03,25,00,11,5.30
2012,03,25,00,12,5.30
2012,03,25,00,13,5.30
2012,03,25,00,14,5.30
2012,03,25,00,15,5.30
2012,03,25,00,16,5.20
2012,03,25,00,17,5.20
2012,03,25,00,18,5.20
2012,03,25,00,19,5.10
2012,03,25,00,20,5.10
2012,03,25,00,21,5.00
2012,03,25,00,22,4.90
2012,03,25,00,23,4.90
2012,03,25,00,24,4.90
2012,03,25,00,25,4.80
2012,03,25,00,26,4.80
2012,03,25,00,27,4.80
2012,03,25,00,28,4.70
2012,03,25,00,29,4.70
2012,03,25,00,30,4.70
2012,03,25,00,31,4.70
2012,03,25,00,32,4.70
2012,03,25,00,33,4.60
2012,03,25,00,34,4.60
2012,03,25,00,35,4.60
2012,03,25,00,36,4.60
2012,03,25,00,37,4.60
2012,03,25,00,38,4.60
2012,03,25,00,39,4.60
2012,03,25,00,40,4.60
2012,03,25,00,41,4.60
2012,03,25,00,42,4.60
2012,03,25,00,43,4.60
2012,03,25,00,44,4.60
2012,03,25,00,45,4.60
2012,03,25,00,46,4.60
2012,03,25,00,47,4.50
2012,03,25,00,48,4.50
2012,03,25,00,49,4.50
2012,03,25,00,50,4.50
2012,03,25,00,51,4.50
2012,03,25,00,52,4.50
2012,03,25,00,53,4.50
2012,03,25,00,54,4.50
2012,03,25,00,55,4.50
2012,03,25,00,56,4.50
2012,03,25,00,57,4.50
2012,03,25,00,58,4.50
2012,03,25,00,59,4.50
2012,03,25,01,00,4.50
2012,03,25,01,01,4.50
2012,03,25,01,02,4.50
2012,03,25,01,03,4.60
2012,03,25,01,04,4.60
2012,03,25,01,05,4.70
2012,03,25,01,06,4.80
2012,03,25,01,07,4.80
2012,03,25,01,08,4.90
2012,03,25,01,09,4.90
2012,03,25,01,10,5.00
2012,03,25,01,11,5.10
2012,03,25,01,12,5.20
2012,03,25,01,13,5.30
2012,03,25,01,14,5.30
2012,03,25,01,15,5.40
2012,03,25,01,16,5.50
2012,03,25,01,17,5.50
2012,03,25,01,18,5.60
2012,03,25,01,19,5.60
2012,03,25,01,20,5.70
2012,03,25,01,21,5.70
2012,03,25,01,22,5.70
2012,03,25,01,23,5.80
2012,03,25,01,24,5.80
2012,03,25,01,25,5.90
2012,03,25,01,26,5.90
2012,03,25,01,27,5.90
2012,03,25,01,28,6.00
2012,03,25,01,29,6.00
2012,03,25,01,30,6.00
2012,03,25,01,31,6.00
2012,03,25,01,32,6.00
2012,03,25,01,33,6.10
2012,03,25,01,34,6.10
2012,03,25,01,35,6.10
2012,03,25,01,36,6.20
2012,03,25,01,37,6.20
2012,03,25,01,38,6.20
2012,03,25,01,39,6.20
2012,03,25,01,40,6.20
2012,03,25,01,41,6.20
2012,03,25,01,42,6.20
2012,03,25,01,43,6.20
2012,03,25,01,44,6.10
2012,03,25,01,45,6.10
2012,03,25,01,46,6.10
2012,03,25,01,47,6.10
2012,03,25,01,48,6.10
2012,03,25,01,49,6.10
2012,03,25,01,50,6.10
2012,03,25,01,51,6.10
2012,03,25,01,52,6.00
2012,03,25,01,53,6.00
2012,03,25,01,54,6.00
2012,03,25,01,55,6.00
2012,03,25,01,56,6.00
2012,03,25,01,57,5.90
2012,03,25,01,58,5.90
2012,03,25,01,59,5.90
2012,03,25,02,00,5.80
2012,03,25,02,01,5.80
2012,03,25,02,02,5.70
2012,03,25,02,03,5.70
2012,03,25,02,04,5.70
2012,03,25,02,05,5.70
2012,03,25,02,06,5.60
2012,03,25,02,07,5.60
2012,03,25,02,08,5.50
2012,03,25,02,09,5.50
2012,03,25,02,10,5.40
2012,03,25,02,11,5.40
2012,03,25,02,12,5.30
2012,03,25,02,13,5.30
2012,03,25,02,14,5.30
2012,03,25,02,15,5.20
2012,03,25,02,16,5.20
2012,03,25,02,17,5.10
2012,03,25,02,18,5.10
2012,03,25,02,19,5.10
2012,03,25,02,20,5.10
2012,03,25,02,21,5.00
2012,03,25,02,22,4.90
2012,03,25,02,23,4.90
2012,03,25,02,24,4.90
2012,03,25,02,25,4.90
2012,03,25,02,26,4.90
2012,03,25,02,27,4.80
2012,03,25,02,28,4.80
2012,03,25,02,29,4.80
2012,03,25,02,30,4.70
2012,03,25,02,31,4.70
2012,03,25,02,32,4.70
2012,03,25,02,33,4.60
2012,03,25,02,34,4.60
2012,03,25,02,35,4.60
2012,03,25,02,36,4.60
2012,03,25,02,37,4.60
2012,03,25,02,38,4.60
2012,03,25,02,39,4.60
2012,03,25,02,40,4.60
2012,03,25,02,41,4.60
2012,03,25,02,42,4.60
2012,03,25,02,43,4.60
2012,03,25,02,44,4.60
2012,03,25,02,45,4.60
2012,03,25,02,46,4.60
2012,03,25,02,47,4.60
2012,03,25,02,48,4.60
2012,03,25,02,49,4.60
2012,03,25,02,50,4.60
2012,03,25,02,51,4.60
2012,03,25,02,52,4.60
2012,03,25,02,53,4.60
2012,03,25,02,54,4.60
2012,03,25,02,55,4.60
2012,03,25,02,56,4.60
2012,03,25,02,57,4.60
2012,03,25,02,58,4.60
2012,03,25,02,59,4.60
2012,03,25,03,00,4.60
2012,03,25,03,01,4.60
2012,03,25,03,02,4.60
2012,03,25,03,03,4.60
2012,03,25,03,04,4.60
2012,03,25,03,05,4.60
2012,03,25,03,06,4.60
2012,03,25,03,07,4.60
2012,03,25,03,08,4.60
2012,03,25,03,09,4.60
2012,03,25,03,10,4.60
2012,03,25,03,11,4.60
2012,03,25,03,12,4.60
2012,03,25,03,13,4.60
2012,03,25,03,14,4.60
2012,03,25,03,15,4.60
2012,03,25,03,16,4.60
2012,03,25,03,17,4.60
2012,03,25,03,18,4.60
2012,03,25,03,19,4.60
2012,03,25,03,20,4.60
2012,03,25,03,21,4.60
2012,03,25,03,22,4.70
2012,03,25,03,23,4.70
2012,03,25,03,24,4.80
2012,03,25,03,25,4.80
2012,03,25,03,26,4.90
2012,03,25,03,27,4.90
2012,03,25,03,28,4.90
2012,03,25,03,29,5.00
2012,03,25,03,30,5.10
2012,03,25,03,31,5.10
2012,03,25,03,32,5.10
2012,03,25,03,33,5.10
2012,03,25,03,34,5.20
2012,03,25,03,35,5.20
2012,03,25,03,36,5.30
2012,03,25,03,37,5.30
2012,03,25,03,38,5.40
2012,03,25,03,39,5.50
2012,03,25,03,40,5.60
2012,03,25,03,41,5.60
2012,03,25,03,42,5.70
2012,03,25,03,43,5.70
2012,03,25,03,44,5.70
2012,03,25,03,45,5.70
2012,03,25,03,46,5.70
2012,03,25,03,47,5.70
2012,03,25,03,48,5.80
2012,03,25,03,49,5.80
2012,03,25,03,50,5.80
2012,03,25,03,51,5.90
2012,03,25,03,52,5.90
2012,03,25,03,53,5.90
2012,03,25,03,54,5.90
2012,03,25,03,55,6.00
2012,03,25,03,56,6.00
2012,03,25,03,57,6.00
2012,03,25,03,58,6.00
2012,03,25,03,59,6.00
2012,03,25,04,00,6.00
2012,03,25,04,01,6.00
2012,03,25,04,02,5.90
2012,03,25,04,03,5.90
2012,03,25,04,04,5.90
2012,03,25,04,05,5.90
2012,03,25,04,06,5.90
2012,03,25,04,07,5.90
2012,03,25,04,08,5.90
2012,03,25,04,09,5.90
2012,03,25,04,10,5.90
2012,03,25,04,11,5.90
2012,03,25,04,12,5.90
2012,03,25,04,13,5.90
2012,03,25,04,14,5.90
2012,03,25,04,15,5.90
2012,03,25,04,16,6.00
2012,03,25,04,17,6.00
2012,03,25,04,18,6.00
2012,03,25,04,19,6.00
2012,03,25,04,20,6.10
2012,03,25,04,21,6.10
2012,03,25,04,22,6.20
2012,03,25,04,23,6.20
2012,03,25,04,24,6.20
2012,03,25,04,25,6.20
2012,03,25,04,26,6.20
2012,03,25,04,27,6.20
2012,03,25,04,28,6.20
2012,03,25,04,29,6.20
2012,03,25,04,30,6.20
2012,03,25,04,31,6.10
2012,03,25,04,32,6.10
2012,03,25,04,33,6.10
2012,03,25,04,34,6.00
2012,03,25,04,35,6.00
2012,03,25,04,36,6.00
2012,03,25,04,37,6.00
2012,03,25,04,38,5.90
2012,03,25,04,39,5.90
2012,03,25,04,40,5.90
2012,03,25,04,41,5.90
2012,03,25,04,42,5.90
2012,03,25,04,43,5.80
2012,03,25,04,44,5.80
2012,03,25,04,45,5.80
2012,03,25,04,46,5.80
2012,03,25,04,47,5.80
2012,03,25,04,48,5.80
2012,03,25,04,49,5.80
2012,03,25,04,50,5.80
2012,03,25,04,51,5.80
2012,03,25,04,52,5.80
2012,03,25,04,53,5.70
2012,03,25,04,54,5.70
2012,03,25,04,55,5.70
2012,03,25,04,56,5.70
2012,03,25,04,57,5.70
2012,03,25,04,58,5.70
2012,03,25,04,59,5.70
2012,03,25,05,00,5.70
2012,03,25,05,01,5.70
2012,03,25,05,02,5.70
2012,03,25,05,03,5.70
2012,03,25,05,04,5.70
2012,03,25,05,05,5.70
2012,03,25,05,06,5.70
2012,03,25,05,07,5.70
2012,03,25,05,08,5.70
2012,03,25,05,09,5.60
2012,03,25,05,10,5.60
2012,03,25,05,11,5.60
2012,03,25,05,12,5.60
2012,03,25,05,13,5.60
2012,03,25,05,14,5.50
2012,03,25,05,15,5.50
2012,03,25,05,16,5.50
2012,03,25,05,17,5.40
2012,03,25,05,18,5.40
2012,03,25,05,19,5.30
2012,03,25,05,20,5.30
2012,03,25,05,21,5.30
2012,03,25,05,22,5.30
2012,03,25,05,23,5.30
2012,03,25,05,24,5.30
2012,03,25,05,25,5.30
2012,03,25,05,26,5.20
2012,03,25,05,27,5.20
2012,03,25,05,28,5.20
2012,03,25,05,29,5.20
2012,03,25,05,30,5.20
2012,03,25,05,31,5.10
2012,03,25,05,32,5.10
2012,03,25,05,33,5.10
2012,03,25,05,34,5.10
2012,03,25,05,35,5.10
2012,03,25,05,36,5.10
2012,03,25,05,37,5.10
2012,03,25,05,38,5.10
2012,03,25,05,39,5.10
2012,03,25,05,40,5.10
2012,03,25,05,41,5.10
2012,03,25,05,42,5.00
2012,03,25,05,43,4.90
2012,03,25,05,44,4.90
2012,03,25,05,45,4.90
2012,03,25,05,46,4.90
2012,03,25,05,47,4.90
2012,03,25,05,48,4.90
2012,03,25,05,49,4.90
2012,03,25,05,50,5.00
2012,03,25,05,51,5.00
2012,03,25,05,52,5.10
2012,03,25,05,53,5.10
2012,03,25,05,54,5.10
2012,03,25,05,55,5.10
2012,03,25,05,56,5.10
2012,03,25,05,57,5.10
2012,03,25,05,58,5.10
2012,03,25,05,59,5.10
2012,03,25,06,00,5.10
2012,03,25,06,01,5.10
2012,03,25,06,02,5.10
2012,03,25,06,03,5.10
2012,03,25,06,04,5.10
2012,03,25,06,05,5.20
2012,03,25,06,06,5.20
2012,03,25,06,07,5.20
2012,03,25,06,08,5.30
2012,03,25,06,09,5.30
2012,03,25,06,10,5.30
2012,03,25,06,11,5.30
2012,03,25,06,12,5.30
2012,03,25,06,13,5.30
2012,03,25,06,14,5.40
2012,03,25,06,15,5.40
2012,03,25,06,16,5.40
2012,03,25,06,17,5.40
2012,03,25,06,18,5.40
2012,03,25,06,19,5.40
2012,03,25,06,20,5.40
2012,03,25,06,21,5.50
2012,03,25,06,22,5.50
2012,03,25,06,23,5.50
2012,03,25,06,24,5.50
2012,03,25,06,25,5.50
2012,03,25,06,26,5.50
2012,03,25,06,27,5.50
2012,03,25,06,28,5.50
2012,03,25,06,29,5.50
2012,03,25,06,30,5.50
2012,03,25,06,31,5.50
2012,03,25,06,32,5.50
2012,03,25,06,33,5.60
2012,03,25,06,34,5.60
2012,03,25,06,35,5.60
2012,03,25,06,36,5.60
2012,03,25,06,37,5.60
2012,03,25,06,38,5.70
2012,03,25,06,39,5.70
2012,03,25,06,40,5.70
2012,03,25,06,41,5.70
2012,03,25,06,42,5.70
2012,03,25,06,43,5.70
2012,03,25,06,44,5.70
2012,03,25,06,45,5.70
2012,03,25,06,46,5.70
2012,03,25,06,47,5.70
2012,03,25,06,48,5.70
2012,03,25,06,49,5.70
2012,03,25,06,50,5.70
2012,03,25,06,51,5.70
2012,03,25,06,52,5.70
2012,03,25,06,53,5.70
2012,03,25,06,54,5.70
2012,03,25,06,55,5.70
2012,03,25,06,56,5.70
2012,03,25,06,57,5.70
2012,03,25,06,58,5.70
2012,03,25,06,59,5.70
2012,03,25,07,00,5.70
2012,03,25,07,01,5.70
2012,03,25,07,02,5.70
2012,03,25,07,03,5.80
2012,03,25,07,04,5.80
2012,03,25,07,05,5.80
2012,03,25,07,06,5.80
2012,03,25,07,07,5.80
2012,03,25,07,08,5.80
2012,03,25,07,09,5.80
2012,03,25,07,10,5.90
2012,03,25,07,11,5.90
2012,03,25,07,12,6.00
2012,03,25,07,13,6.00
2012,03,25,07,14,6.00
2012,03,25,07,15,6.00
2012,03,25,07,16,6.10
2012,03,25,07,17,6.10
2012,03,25,07,18,6.10
2012,03,25,07,19,6.20
2012,03,25,07,20,6.20
2012,03,25,07,21,6.20
2012,03,25,07,22,6.20
2012,03,25,07,23,6.20
2012,03,25,07,24,6.20
2012,03,25,07,25,6.20
2012,03,25,07,26,6.20
2012,03,25,07,27,6.20
2012,03,25,07,28,6.20
2012,03,25,07,29,6.20
2012,03,25,07,30,6.20
2012,03,25,07,31,6.20
2012,03,25,07,32,6.20
2012,03,25,07,33,6.20
2012,03,25,07,34,6.20
2012,03,25,07,35,6.20
2012,03,25,07,36,6.20
2012,03,25,07,37,6.20
2012,03,25,07,38,6.20
2012,03,25,07,39,6.20
2012,03,25,07,40,6.20
2012,03,25,07,41,6.20
2012,03,25,07,42,6.20
2012,03,25,07,43,6.20
2012,03,25,07,44,6.20
2012,03,25,07,45,6.20
2012,03,25,07,46,6.20
2012,03,25,07,47,6.20
2012,03,25,07,48,6.20
2012,03,25,07,49,6.10
2012,03,25,07,50,6.10
2012,03,25,07,51,6.10
2012,03,25,07,52,6.10
2012,03,25,07,53,6.10
2012,03,25,07,54,6.10
2012,03,25,07,55,6.10
2012,03,25,07,56,6.10
2012,03,25,07,57,6.10
2012,03,25,07,58,6.10
2012,03,25,07,59,6.10
2012,03,25,08,00,6.10
2012,03,25,08,01,6.10
2012,03,25,08,02,6.10
2012,03,25,08,03,6.20
2012,03,25,08,04,6.20
2012,03,25,08,05,6.20
2012,03,25,08,06,6.20
2012,03,25,08,07,6.20
2012,03,25,08,08,6.20
2012,03,25,08,09,6.30
2012,03,25,08,10,6.40
2012,03,25,08,11,6.40
2012,03,25,08,12,6.40
2012,03,25,08,13,6.40
2012,03,25,08,14,6.40
2012,03,25,08,15,6.40
2012,03,25,08,16,6.30
2012,03,25,08,17,6.30
2012,03,25,08,18,6.30
2012,03,25,08,19,6.40
2012,03,25,08,20,6.40
2012,03,25,08,21,6.40
2012,03,25,08,22,6.40
2012,03,25,08,23,6.40
2012,03,25,08,24,6.40
2012,03,25,08,25,6.50
2012,03,25,08,26,6.60
2012,03,25,08,27,6.60
2012,03,25,08,28,6.60
2012,03,25,08,29,6.70
2012,03,25,08,30,6.80
2012,03,25,08,31,6.80
2012,03,25,08,32,6.80
2012,03,25,08,33,6.80
2012,03,25,08,34,6.80
2012,03,25,08,35,6.90
2012,03,25,08,36,6.90
2012,03,25,08,37,7.00
2012,03,25,08,38,7.10
2012,03,25,08,39,7.10
2012,03,25,08,40,7.20
2012,03,25,08,41,7.20
2012,03,25,08,42,7.30
2012,03,25,08,43,7.30
2012,03,25,08,44,7.30
2012,03,25,08,45,7.40
2012,03,25,08,46,7.50
2012,03,25,08,47,7.50
2012,03,25,08,48,7.50
2012,03,25,08,49,7.60
2012,03,25,08,50,7.60
2012,03,25,08,51,7.60
2012,03,25,08,52,7.60
2012,03,25,08,53,7.70
2012,03,25,08,54,7.70
2012,03,25,08,55,7.70
2012,03,25,08,56,7.70
2012,03,25,08,57,7.70
2012,03,25,08,58,7.80
2012,03,25,08,59,7.80
2012,03,25,09,00,7.80
2012,03,25,09,01,7.80
2012,03,25,09,02,7.90
2012,03,25,09,03,7.90
2012,03,25,09,04,7.90
2012,03,25,09,05,7.90
2012,03,25,09,06,8.00
2012,03,25,09,07,8.00
2012,03,25,09,08,8.00
2012,03,25,09,09,8.10
2012,03,25,09,10,8.10
2012,03,25,09,11,8.10
2012,03,25,09,12,8.10
2012,03,25,09,13,8.10
2012,03,25,09,14,8.20
2012,03,25,09,15,8.20
2012,03,25,09,16,8.20
2012,03,25,09,17,8.20
2012,03,25,09,18,8.20
2012,03,25,09,19,8.30
2012,03,25,09,20,8.30
2012,03,25,09,21,8.30
2012,03,25,09,22,8.30
2012,03,25,09,23,8.30
2012,03,25,09,24,8.40
2012,03,25,09,25,8.40
2012,03,25,09,26,8.40
2012,03,25,09,27,8.40
2012,03,25,09,28,8.50
2012,03,25,09,29,8.50
2012,03,25,09,30,8.50
2012,03,25,09,31,8.60
2012,03,25,09,32,8.60
2012,03,25,09,33,8.50
2012,03,25,09,34,8.50
2012,03,25,09,35,8.50
2012,03,25,09,36,8.50
2012,03,25,09,37,8.50
2012,03,25,09,38,8.60
2012,03,25,09,39,8.60
2012,03,25,09,40,8.70
2012,03,25,09,41,8.70
2012,03,25,09,42,8.80
2012,03,25,09,43,8.80
2012,03,25,09,44,8.80
2012,03,25,09,45,8.80
2012,03,25,09,46,8.80
2012,03,25,09,47,8.80
2012,03,25,09,48,8.90
2012,03,25,09,49,8.90
2012,03,25,09,50,8.90
2012,03,25,09,51,9.00
2012,03,25,09,52,9.00
2012,03,25,09,53,9.10
2012,03,25,09,54,9.20
2012,03,25,09,55,9.20
2012,03,25,09,56,9.20
2012,03,25,09,57,9.30
2012,03,25,09,58,9.40
2012,03,25,09,59,9.40
2012,03,25,10,00,9.50
2012,03,25,10,01,9.50
2012,03,25,10,02,9.50
2012,03,25,10,03,9.50
2012,03,25,10,04,9.50
2012,03,25,10,05,9.50
2012,03,25,10,06,9.50
2012,03,25,10,07,9.60
2012,03,25,10,08,9.60
2012,03,25,10,09,9.60
2012,03,25,10,10,9.60
2012,03,25,10,11,9.60
2012,03,25,10,12,9.70
2012,03,25,10,13,9.70
2012,03,25,10,14,9.70
2012,03,25,10,15,9.70
2012,03,25,10,16,9.70
2012,03,25,10,17,9.70
2012,03,25,10,18,9.70
2012,03,25,10,19,9.70
2012,03,25,10,20,9.70
2012,03,25,10,21,9.70
2012,03,25,10,22,9.80
2012,03,25,10,23,9.80
2012,03,25,10,24,9.80
2012,03,25,10,25,9.80
2012,03,25,10,26,9.80
2012,03,25,10,27,9.80
2012,03,25,10,28,9.80
2012,03,25,10,29,9.90
2012,03,25,10,30,9.80
2012,03,25,10,31,9.80
2012,03,25,10,32,9.90
2012,03,25,10,33,9.90
2012,03,25,10,34,9.90
2012,03,25,10,35,9.90
2012,03,25,10,36,10.10
2012,03,25,10,37,10.10
2012,03,25,10,38,10.10
2012,03,25,10,39,10.20
2012,03,25,10,40,10.20
2012,03,25,10,41,10.20
2012,03,25,10,42,10.20
2012,03,25,10,43,10.20
2012,03,25,10,44,10.30
2012,03,25,10,45,10.30
2012,03,25,10,46,10.40
2012,03,25,10,47,10.40
2012,03,25,10,48,10.30
2012,03,25,10,49,10.30
2012,03,25,10,50,10.40
2012,03,25,10,51,10.40
2012,03,25,10,52,10.40
2012,03,25,10,53,10.40
2012,03,25,10,54,10.40
2012,03,25,10,55,10.40
2012,03,25,10,56,10.40
2012,03,25,10,57,10.50
2012,03,25,10,58,10.60
2012,03,25,10,59,10.60
2012,03,25,11,00,10.60
2012,03,25,11,01,10.50
2012,03,25,11,02,10.40
2012,03,25,11,03,10.40
2012,03,25,11,04,10.40
2012,03,25,11,05,10.40
2012,03,25,11,06,10.40
2012,03,25,11,07,10.40
2012,03,25,11,08,10.40
2012,03,25,11,09,10.40
2012,03,25,11,10,10.40
2012,03,25,11,11,10.40
2012,03,25,11,12,10.30
2012,03,25,11,13,10.30
2012,03,25,11,14,10.30
2012,03,25,11,15,10.30
2012,03,25,11,16,10.30
2012,03,25,11,17,10.20
2012,03,25,11,18,10.20
2012,03,25,11,19,10.20
2012,03,25,11,20,10.20
2012,03,25,11,21,10.30
2012,03,25,11,22,10.40
2012,03,25,11,23,10.40
2012,03,25,11,24,10.60
2012,03,25,11,25,10.60
2012,03,25,11,26,10.60
2012,03,25,11,27,10.60
2012,03,25,11,28,10.60
2012,03,25,11,29,10.60
2012,03,25,11,30,10.60
2012,03,25,11,31,10.60
2012,03,25,11,32,10.60
2012,03,25,11,33,10.60
2012,03,25,11,34,10.70
2012,03,25,11,35,10.80
2012,03,25,11,36,10.90
2012,03,25,11,37,10.90
2012,03,25,11,38,10.90
2012,03,25,11,39,10.90
2012,03,25,11,40,11.00
2012,03,25,11,41,11.10
2012,03,25,11,42,11.10
2012,03,25,11,43,11.10
2012,03,25,11,44,11.20
2012,03,25,11,45,11.20
2012,03,25,11,46,11.20
2012,03,25,11,47,11.20
2012,03,25,11,48,11.30
2012,03,25,11,49,11.40
2012,03,25,11,50,11.40
2012,03,25,11,51,11.30
2012,03,25,11,52,11.40
2012,03,25,11,53,11.40
2012,03,25,11,54,11.60
2012,03,25,11,55,11.60
2012,03,25,11,56,11.60
2012,03,25,11,57,11.60
2012,03,25,11,58,11.70
2012,03,25,11,59,11.70
2012,03,25,12,00,11.80
2012,03,25,12,01,11.80
2012,03,25,12,02,11.90
2012,03,25,12,03,12.00
2012,03,25,12,04,12.00
2012,03,25,12,05,12.10
2012,03,25,12,06,12.10
2012,03,25,12,07,12.00
2012,03,25,12,08,12.00
2012,03,25,12,09,12.00
2012,03,25,12,10,11.90
2012,03,25,12,11,11.80
2012,03,25,12,12,11.80
2012,03,25,12,13,11.70
2012,03,25,12,14,11.60
2012,03,25,12,15,11.60
2012,03,25,12,16,11.50
2012,03,25,12,17,11.40
2012,03,25,12,18,11.30
2012,03,25,12,19,11.30
2012,03,25,12,20,11.20
2012,03,25,12,21,11.20
2012,03,25,12,22,11.20
2012,03,25,12,23,11.20
2012,03,25,12,24,11.40
2012,03,25,12,25,11.40
2012,03,25,12,26,11.50
2012,03,25,12,27,11.60
2012,03,25,12,28,11.50
2012,03,25,12,29,11.40
2012,03,25,12,30,11.30
2012,03,25,12,31,11.20
2012,03,25,12,32,11.10
2012,03,25,12,33,11.10
2012,03,25,12,34,11.10
2012,03,25,12,35,11.10
2012,03,25,12,36,11.10
2012,03,25,12,37,11.20
2012,03,25,12,38,11.40
2012,03,25,12,39,11.50
2012,03,25,12,40,11.60
2012,03,25,12,41,11.70
2012,03,25,12,42,11.70
2012,03,25,12,43,11.80
2012,03,25,12,44,11.80
2012,03,25,12,45,11.80
2012,03,25,12,46,11.80
2012,03,25,12,47,11.90
2012,03,25,12,48,11.80
2012,03,25,12,49,11.80
2012,03,25,12,50,11.70
2012,03,25,12,51,11.70
2012,03,25,12,52,11.70
2012,03,25,12,53,11.80
2012,03,25,12,54,11.80
2012,03,25,12,55,11.90
2012,03,25,12,56,12.00
2012,03,25,12,57,12.00
2012,03,25,12,58,12.00
2012,03,25,12,59,12.10
2012,03,25,13,00,12.20
2012,03,25,13,01,12.40
2012,03,25,13,02,12.30
2012,03,25,13,03,12.20
2012,03,25,13,04,12.10
2012,03,25,13,05,12.10
2012,03,25,13,06,12.10
2012,03,25,13,07,12.00
2012,03,25,13,08,12.00
2012,03,25,13,09,12.00
2012,03,25,13,10,12.00
2012,03,25,13,11,12.10
2012,03,25,13,12,12.00
2012,03,25,13,13,12.00
2012,03,25,13,14,12.00
2012,03,25,13,15,12.00
2012,03,25,13,16,12.00
2012,03,25,13,17,12.00
2012,03,25,13,18,12.00
2012,03,25,13,19,12.00
2012,03,25,13,20,12.00
2012,03,25,13,21,12.00
2012,03,25,13,22,12.00
2012,03,25,13,23,12.00
2012,03,25,13,24,12.00
2012,03,25,13,25,11.90
2012,03,25,13,26,11.90
2012,03,25,13,27,11.90
2012,03,25,13,28,11.90
2012,03,25,13,29,11.90
2012,03,25,13,30,11.80
2012,03,25,13,31,11.80
2012,03,25,13,32,11.80
2012,03,25,13,33,11.80
2012,03,25,13,34,11.90
2012,03,25,13,35,12.00
2012,03,25,13,36,12.00
2012,03,25,13,37,12.00
2012,03,25,13,38,12.10
2012,03,25,13,39,12.20
2012,03,25,13,40,12.20
2012,03,25,13,41,12.30
2012,03,25,13,42,12.30
2012,03,25,13,43,12.40
2012,03,25,13,44,12.50
2012,03,25,13,45,12.50
2012,03,25,13,46,12.60
2012,03,25,13,47,12.50
2012,03,25,13,48,12.60
2012,03,25,13,49,12.60
2012,03,25,13,50,12.50
2012,03,25,13,51,12.50
2012,03,25,13,52,12.40
2012,03,25,13,53,12.40
2012,03,25,13,54,12.50
2012,03,25,13,55,12.60
2012,03,25,13,56,12.70
2012,03,25,13,57,12.70
2012,03,25,13,58,12.80
2012,03,25,13,59,12.80
2012,03,25,14,00,12.80
2012,03,25,14,01,12.80
2012,03,25,14,02,12.80
2012,03,25,14,03,12.80
2012,03,25,14,04,12.80
2012,03,25,14,05,12.80
2012,03,25,14,06,12.80
2012,03,25,14,07,12.80
2012,03,25,14,08,12.80
2012,03,25,14,09,12.80
2012,03,25,14,10,12.80
2012,03,25,14,11,12.90
2012,03,25,14,12,12.90
2012,03,25,14,13,13.00
2012,03,25,14,14,13.10
2012,03,25,14,15,13.10
2012,03,25,14,16,13.10
2012,03,25,14,17,13.10
2012,03,25,14,18,13.10
2012,03,25,14,19,13.10
2012,03,25,14,20,13.20
2012,03,25,14,21,13.20
2012,03,25,14,22,13.30
2012,03,25,14,23,13.30
2012,03,25,14,24,13.30
2012,03,25,14,25,13.30
2012,03,25,14,26,13.30
2012,03,25,14,27,13.30
2012,03,25,14,28,13.30
2012,03,25,14,29,13.30
2012,03,25,14,30,13.40
2012,03,25,14,31,13.40
2012,03,25,14,32,13.40
2012,03,25,14,33,13.30
2012,03,25,14,34,13.30
2012,03,25,14,35,13.30
2012,03,25,14,36,13.20
2012,03,25,14,37,13.20
2012,03,25,14,38,13.20
2012,03,25,14,39,13.20
2012,03,25,14,40,13.20
2012,03,25,14,41,13.30
2012,03,25,14,42,13.30
2012,03,25,14,43,13.30
2012,03,25,14,44,13.30
2012,03,25,14,45,13.30
2012,03,25,14,46,13.30
2012,03,25,14,47,13.30
2012,03,25,14,48,13.30
2012,03,25,14,49,13.30
2012,03,25,14,50,13.40
2012,03,25,14,51,13.50
2012,03,25,14,52,13.60
2012,03,25,14,53,13.70
2012,03,25,14,54,13.70
2012,03,25,14,55,13.70
2012,03,25,14,56,13.70
2012,03,25,14,57,13.70
2012,03,25,14,58,13.70
2012,03,25,14,59,13.70
2012,03,25,15,00,13.80
2012,03,25,15,01,13.90
2012,03,25,15,02,14.00
2012,03,25,15,03,14.00
2012,03,25,15,04,14.10
2012,03,25,15,05,14.10
2012,03,25,15,06,14.10
2012,03,25,15,07,14.10
2012,03,25,15,08,14.10
2012,03,25,15,09,14.10
2012,03,25,15,10,14.20
2012,03,25,15,11,14.30
2012,03,25,15,12,14.40
2012,03,25,15,13,14.40
2012,03,25,15,14,14.40
2012,03,25,15,15,14.50
2012,03,25,15,16,14.60
2012,03,25,15,17,14.70
2012,03,25,15,18,14.80
2012,03,25,15,19,14.90
2012,03,25,15,20,15.00
2012,03,25,15,21,15.00
2012,03,25,15,22,14.90
2012,03,25,15,23,14.90
2012,03,25,15,24,14.80
2012,03,25,15,25,14.60
2012,03,25,15,26,14.60
2012,03,25,15,27,14.50
2012,03,25,15,28,14.50
2012,03,25,15,29,14.50
2012,03,25,15,30,14.50
2012,03,25,15,31,14.50
2012,03,25,15,32,14.60
2012,03,25,15,33,14.60
2012,03,25,15,34,14.60
2012,03,25,15,35,14.60
2012,03,25,15,36,14.50
2012,03,25,15,37,14.50
2012,03,25,15,38,14.50
2012,03,25,15,39,14.50
2012,03,25,15,40,14.40
2012,03,25,15,41,14.40
2012,03,25,15,42,14.40
2012,03,25,15,43,14.40
2012,03,25,15,44,14.40
2012,03,25,15,45,14.40
2012,03,25,15,46,14.50
2012,03,25,15,47,14.50
2012,03,25,15,48,14.60
2012,03,25,15,49,14.60
2012,03,25,15,50,14.70
2012,03,25,15,51,14.70
2012,03,25,15,52,14.70
2012,03,25,15,53,14.70
2012,03,25,15,54,14.70
2012,03,25,15,55,14.70
2012,03,25,15,56,14.70
2012,03,25,15,57,14.70
2012,03,25,15,58,14.70
2012,03,25,15,59,14.70
2012,03,25,16,00,14.70
2012,03,25,16,01,14.80
2012,03,25,16,02,14.80
2012,03,25,16,03,14.80
2012,03,25,16,04,14.80
2012,03,25,16,05,14.80
2012,03,25,16,06,14.90
2012,03,25,16,07,14.90
2012,03,25,16,08,14.90
2012,03,25,16,09,14.90
2012,03,25,16,10,14.90
2012,03,25,16,11,14.90
2012,03,25,16,12,14.80
2012,03,25,16,13,14.80
2012,03,25,16,14,14.80
2012,03,25,16,15,14.80
2012,03,25,16,16,14.80
2012,03,25,16,17,14.80
2012,03,25,16,18,14.80
2012,03,25,16,19,14.90
2012,03,25,16,20,14.90
2012,03,25,16,21,15.00
2012,03,25,16,22,15.00
2012,03,25,16,23,15.00
2012,03,25,16,24,15.00
2012,03,25,16,25,15.00
2012,03,25,16,26,15.00
2012,03,25,16,27,15.10
2012,03,25,16,28,15.10
2012,03,25,16,29,15.00
2012,03,25,16,30,15.00
2012,03,25,16,31,15.00
2012,03,25,16,32,15.00
2012,03,25,16,33,15.00
2012,03,25,16,34,15.00
2012,03,25,16,35,15.00
2012,03,25,16,36,15.00
2012,03,25,16,37,15.00
2012,03,25,16,38,15.10
2012,03,25,16,39,15.10
2012,03,25,16,40,15.10
2012,03,25,16,41,15.10
2012,03,25,16,42,15.10
2012,03,25,16,43,15.10
2012,03,25,16,44,15.10
2012,03,25,16,45,15.10
2012,03,25,16,46,15.10
2012,03,25,16,47,15.10
2012,03,25,16,48,15.20
2012,03,25,16,49,15.20
2012,03,25,16,50,15.20
2012,03,25,16,51,15.20
2012,03,25,16,52,15.10
2012,03,25,16,53,15.10
2012,03,25,16,54,15.00
2012,03,25,16,55,15.00
2012,03,25,16,56,14.90
2012,03,25,16,57,14.80
2012,03,25,16,58,14.80
2012,03,25,16,59,14.80
2012,03,25,17,00,14.70
2012,03,25,17,01,14.70
2012,03,25,17,02,14.70
2012,03,25,17,03,14.70
2012,03,25,17,04,14.60
2012,03,25,17,05,14.60
2012,03,25,17,06,14.50
2012,03,25,17,07,14.50
2012,03,25,17,08,14.40
2012,03,25,17,09,14.40
2012,03,25,17,10,14.40
2012,03,25,17,11,14.40
2012,03,25,17,12,14.40
2012,03,25,17,13,14.40
2012,03,25,17,14,14.30
2012,03,25,17,15,14.20
2012,03,25,17,16,14.20
2012,03,25,17,17,14.00
2012,03,25,17,18,13.90
2012,03,25,17,19,13.70
2012,03,25,17,20,13.60
2012,03,25,17,21,13.50
2012,03,25,17,22,13.30
2012,03,25,17,23,13.20
2012,03,25,17,24,13.00
2012,03,25,17,25,12.80
2012,03,25,17,26,12.60
2012,03,25,17,27,12.40
2012,03,25,17,28,12.20
2012,03,25,17,29,12.10
2012,03,25,17,30,11.90
2012,03,25,17,31,11.80
2012,03,25,17,32,11.70
2012,03,25,17,33,11.60
2012,03,25,17,34,11.60
2012,03,25,17,35,11.50
2012,03,25,17,36,11.40
2012,03,25,17,37,11.30
2012,03,25,17,38,11.20
2012,03,25,17,39,11.20
2012,03,25,17,40,11.20
2012,03,25,17,41,11.20
2012,03,25,17,42,11.10
2012,03,25,17,43,11.10
2012,03,25,17,44,11.10
2012,03,25,17,45,11.10
2012,03,25,17,46,11.10
2012,03,25,17,47,11.10